Location: Naalehu
(19.0640°N, 155.5860°W)
Time: 14:19:17
(UTC-10:00)

Hubble Space Telescope - Visible Passes

Search period start: 18 April 2019 00:00
Search period end: 28 April 2019 00:00
Orbit: 537 x 540 km, 28.5° (Epoch: 17 April)

Date Brightness Start Highest point End Pass type
(mag) Time Alt. Az. Time Alt. Az. Time Alt. Az.
18 Apr 1.8 05:15:06 12° SW 05:18:35 37° SSE 05:22:25 10° E visible
19 Apr 1.3 05:05:22 19° SW 05:08:03 51° SSE 05:12:05 10° ENE visible
20 Apr 0.8 04:55:34 29° SW 04:57:33 69° SSE 05:01:40 10° ENE visible
21 Apr 0.7 04:45:42 41° WSW 04:47:03 89° NNW 04:51:12 10° ENE visible
22 Apr 0.8 04:35:47 53° W 04:36:35 69° NNW 04:40:42 10° ENE visible
23 Apr 1.1 04:25:49 52° NW 04:26:07 53° NNW 04:30:10 10° ENE visible
24 Apr 1.5 04:15:49 43° N 04:15:49 43° N 04:19:38 10° NE visible
25 Apr 2.0 04:05:48 34° N 04:05:48 34° N 04:09:04 10° NE visible
26 Apr 2.5 03:55:45 27° NNE 03:55:45 27° NNE 03:58:31 10° NE visible
27 Apr 2.9 03:45:43 23° NNE 03:45:43 23° NNE 03:47:59 10° NE visible
27 Apr 2.8 05:23:00 10° NW 05:26:14 22° N 05:29:29 10° NE visible
